{"data":{"norad_id":62963,"epoch":"2026-09-21T16:34:56.488512Z","epoch_age_seconds":62198,"freshness":"FRESH","line1":"1 62963U 25029R   26264.69093158  .00019154  00000+0  57647-3 0  9996","line2":"2 62963  53.1601  35.8520 0000805  85.0227 275.0868 15.34405643 91410","mean_motion":15.34405643,"eccentricity":8.05e-5,"inclination_deg":53.1601,"raan_deg":35.852,"arg_perigee_deg":85.0227,"mean_anomaly_deg":275.0868,"bstar":0.00057647,"rev_number":9141,"period_min":93.84741294255,"perigee_km":462.13578178412,"apogee_km":463.23715436248,"semimajor_km":6840.8234680733,"source":"CELESTRAK","updated_at":"2026-09-22T09:00:49.714372Z"}}